Content
SEND FEEDBACK

Daily
Averages
Monthly
Summary
United States of America

ST. LOUIS, MISSOURI


Home > North America > United States > Missouri
Elevation: 535 feet     Latitude: 38 45N     Longitude: 090 22W

WEATHER
 
SELECT A DAY
Number of Records: 199,900;   Date Range: 1/1/95 - 10/29/14
 
SHARE

PRINT THIS DATA

[ ← Previous Day ]
WEATHER ALMANAC - APRIL 29, 2013
[ Next Day → ]
[ °C ]   °F
Weather ElementAverageHighLow
Temperature53.2 °F82 °F (4:54 pm)41 °F (5:19 am)
Dewpoint45.8 °F59 °F (11:54 pm)39.2 °F (3:03 am)
Humidity79.8 %100 % (1:25 am)38 % (3:54 pm)
Barometer29.88 in29.94 in (7:54 am)29.75 in (4:54 pm)
Wind Speed2.7 mph11.5 mph (1:54 pm)
Wind Gust19.6 mph (10:54 pm)
Weather ElementAverage
Visibility4.2 mi
Wind DirectionNE (46.8 °)

Weather ElementTotal
Precipitation---
Heating Degree Days3.5 (Base 65)
Growing Degree Days11.5 (Base 50)
Averaged from 50 records on April 29, 2013
WEATHER CONDITIONS BREAKOUT
WIND DIRECTION BREAKOUT
WEATHER BY HOUR - APRIL 29, 2013
[ °C ]   °F
Local TimeTemperatureDewpointHumidityBarometerVisibilityWind DirectionWind SpeedGust SpeedPrecipitationEventsConditions
12:23 AM44.6 °F42.8 °F93 %29.92 in0.5 miCalmFogFog
12:30 AM44.6 °F42.8 °F93 %29.92 in0.2 miCalmFogFog
12:38 AM44.6 °F42.8 °F93 %29.92 in0.2 miCalmFogFog
12:49 AM44.6 °F42.8 °F93 %29.92 in0.2 miCalmFogFog
12:54 AM45.0 °F43.0 °F93 %29.93 in0.2 miCalmFogFog
1:08 AM44.6 °F42.8 °F93 %29.92 in0.2 miCalmFogFog
1:25 AM42.8 °F42.8 °F100 %29.92 in0.2 miCalmFogFog
1:33 AM44.6 °F42.8 °F93 %29.92 in0.5 miCalmFogFog
1:54 AM44.1 °F42.1 °F93 %29.91 in0.5 miCalmFogFog
2:07 AM44.6 °F42.8 °F93 %29.91 in0.2 miCalmFogFog
2:40 AM42.8 °F42.8 °F100 %29.90 in1.0 miCalmMist
2:54 AM42.1 °F41.0 °F96 %29.91 in1.0 miCalmMist
2:58 AM42.8 °F41.0 °F93 %29.90 in2.0 miCalmScattered Clouds
3:03 AM42.8 °F39.2 °F87 %29.90 in1.0 miCalmMist
3:06 AM42.8 °F39.2 °F87 %29.90 in0.5 miCalmFogFog
3:16 AM42.8 °F39.2 °F87 %29.90 in0.2 miCalmFogFog
3:24 AM42.8 °F41.0 °F93 %29.90 in0.8 miCalmMist
3:46 AM42.8 °F39.2 °F87 %29.90 in1.0 miCalmMist
3:52 AM42.8 °F39.2 °F87 %29.90 in2.0 miCalmScattered Clouds
3:54 AM42.1 °F39.9 °F92 %29.91 in2.5 miCalmMostly Cloudy
3:59 AM42.8 °F41.0 °F93 %29.90 in1.0 miCalmMist
4:06 AM42.8 °F41.0 °F93 %29.90 in0.2 miCalmFogFog
4:15 AM42.8 °F39.2 °F87 %29.90 in0.5 miCalmFogFog
4:21 AM42.8 °F41.0 °F93 %29.90 in1.2 miCalmScattered Clouds
4:25 AM42.8 °F41.0 °F93 %29.90 in4.0 miCalmScattered Clouds
4:39 AM42.8 °F39.2 °F87 %29.91 in1.8 miCalmPartly Cloudy
4:54 AM42.1 °F39.9 °F92 %29.91 in0.8 miCalmMist
5:19 AM41.0 °F39.2 °F93 %29.91 in1.0 miCalmMist
5:26 AM42.8 °F39.2 °F87 %29.91 in0.5 miCalmFogFog
5:34 AM41.0 °F39.2 °F93 %29.91 in1.2 miCalmScattered Clouds
5:39 AM41.0 °F39.2 °F93 %29.91 in0.8 miCalmMist
5:54 AM42.1 °F41.0 °F96 %29.92 in6.0 miCalmPartly Cloudy
6:54 AM42.1 °F41.0 °F96 %29.92 in6.0 miCalmClear
7:54 AM52.0 °F48.9 °F89 %29.94 in10.0 miCalmClear
8:54 AM59.0 °F51.1 °F75 %29.92 in10.0 miCalmClear
9:54 AM64.0 °F53.1 °F67 %29.91 in10.0 miSSE (160°)5.8 mphClear
10:54 AM69.1 °F55.0 °F61 %29.90 in10.0 miSSE (160°)4.6 mphClear
11:54 AM73.0 °F57.0 °F57 %29.88 in10.0 miSE (130°)9.2 mphClear
12:54 PM75.9 °F57.0 °F52 %29.86 in10.0 miSE (130°)5.8 mphClear
1:54 PM79.0 °F57.0 °F47 %29.82 in10.0 miSSE (150°)11.5 mph18.4 mphClear
2:54 PM81.0 °F55.0 °F41 %29.80 in10.0 miSE (130°)8.1 mph18.4 mphClear
3:54 PM81.0 °F53.1 °F38 %29.77 in10.0 miSouth (180°)9.2 mphClear
4:54 PM82.0 °F54.0 °F38 %29.75 in10.0 miSSE (160°)10.4 mph18.4 mphClear
5:54 PM81.0 °F55.0 °F41 %29.75 in10.0 miSSE (160°)9.2 mphClear
6:54 PM79.0 °F57.0 °F47 %29.75 in10.0 miSE (140°)9.2 mphClear
7:54 PM75.9 °F55.0 °F48 %29.76 in10.0 miSSE (150°)9.2 mphClear
8:54 PM73.9 °F55.9 °F53 %29.77 in10.0 miSSE (160°)9.2 mph16.1 mphClear
9:54 PM72.0 °F57.0 °F59 %29.78 in10.0 miSouth (170°)10.4 mphClear
10:54 PM71.1 °F57.9 °F63 %29.77 in10.0 miSouth (180°)11.5 mph19.6 mphClear
11:54 PM69.1 °F59.0 °F70 %29.78 in10.0 miSouth (180°)10.4 mph17.3 mphClear
Hourly data recorded from KSUS, located miles away from St. Louis, Missouri







STORIES FROM OUR PARTNERS